Location: Unspecified
(38.9820°N, 94.4650°W)
Time: 17:35:12
(UTC-06:00)

Hubble Space Telescope - Visible Passes

Search period start: 24 February 2018 00:00
Search period end: 06 March 2018 00:00
Orbit: 537 x 541 km, 28.5° (Epoch: 24 February)

Date Brightness Start Highest point End Pass type
(mag) Time Alt. Az. Time Alt. Az. Time Alt. Az.
24 Feb 2.7 05:38:36 15° SSW 05:40:22 19° S 05:43:17 10° SE visible
25 Feb 2.6 05:28:54 16° SSW 05:29:59 18° S 05:32:50 10° SE visible
26 Feb 2.7 05:19:12 17° SSW 05:19:36 17° S 05:22:20 10° SE visible
27 Feb 2.8 05:09:32 16° S 05:09:32 16° S 05:11:46 10° SSE visible
28 Feb 3.1 04:59:54 13° S 04:59:54 13° S 05:01:05 10° SSE visible
